Location: Newark
(48.2308°N, 120.8549°W)
Time: 03:03:02
(UTC+00:00)

FENGYUN 1C DEB - Pass Details

Date: 31 January 2022
Orbit: 822 x 948 km, 99.2° (Epoch: 28 May)

Event Time Altitude Azimuth Distance (km) Brightness Sun altitude
Rises 03:21:13 0° 166° (SSE) 3,610 ? -23.5°
Reaches altitude 10° 03:23:39 10° 168° (SSE) 2,670 ? -23.9°
Maximum altitude 03:29:40 79° 254° (WSW) 968 ? -24.9°
Drops below altitude 10° 03:35:39 10° 343° (NNW) 2,653 ? -25.9°
Sets 03:38:04 0° 344° (NNW) 3,587 ? -26.3°
